Strona główna
METAR-TAF:

METAR-TAF

Lotnisko :

Charlotte, Michigan, Stany Zjednoczone

Szerokość geograficzna: 42-34-28N, Długość geograficzna: 084-48-41W, wysokość: 271 m

Aktualna obserwacja pogody

Raport powstał 15 minut temu, godzina 02:15 UTC
Cisza
Temperatura -2°C
Wilgotność 63%
Ciśnienie 1020 hPa
Widzialność: 16.1 km
bezchmurnie

METAR: KFPK 170215Z AUTO 00000KT 10SM CLR M02/M08 A3012 RMK AO2 T10201078

czas: 21:30 (02:30 UTC)


TAF: brakujący

Obserwacja i prognoza pogody dla ponad 4000 lotnisk (raport METAR i TAF).

Dostępne stacje oznaczono żółtymi i czerwonymi punktami na mapie.

Najedź kursorem aby zobaczyć nazwę stacji.

Kliknij aby zobaczyć obserwacje i prognozy pogody.

Aby zmienić mapę: kliknij na zielony przycisk z czarnym krzyżykiem, aby powiększyć; na zielony przycisk z myślnikiem, aby pomniejszyć; na zielone strzałki, aby przejść do map sąsiednich.


METAR-TAF: